Flag for India Weather past 2 weeks in Lucknow, Uttar Pradesh, India

Now
77 °F

Haze.


Feels Like: 78 °F
Forecast: 72 / 97 °F
Wind: No wind

Location: Lucknow / Amausi

Current Time: Mar 28, 2015 at 9:46:20 PM

Latest Report: Mar 28, 2015 at 9:00 PM


Visibility: 2 mi

Pressure: 29.80 "Hg

Humidity: 44%

Dew point: 54 °F

Location of LucknowLocation

Historic Weather in Lucknow — Graph

°F

Lucknow temperature yesterday

Maximum temperature yesterday: 97 °F (at 1:00 PM)
Minimum temperature yesterday: 73 °F (at 5:00 AM)
Average temperature yesterday: 86 °F

Past Weeks' High & Low Weather Summary

 TemperatureHumidityPressure
High100 °F (Mar 26, 2:30 PM)100% (Mar 16, 7:00 AM)30.12 "Hg (Mar 16, 7:00 AM)
Low57 °F (Mar 20, 6:00 AM)20% (Mar 28, 4:30 PM)29.53 "Hg (Mar 22, 3:00 PM)
Average77 °F60%29.92 "Hg
* Reported Mar 13 8:30 PM — Mar 28 8:30 PM, Lucknow, Weather by CustomWeather, © 2015

Note: Actual official high and low records may vary slightly from our data, if they occured in-between our weather recording intervals... More about our weather records

Advertising

Lucknow weather history for previous 24 hours

 ConditionsComfort  
Time TempWeatherWind HumidityBarometerVisibility
8:30 PM
Sat, Mar 28
79 °FHaze.No wind39%29.80 "Hg2 mi
8:00 PM79 °FHaze.No wind42%29.77 "Hg2 mi
7:30 PM82 °FHaze.No wind42%29.77 "Hg2 mi
7:00 PM86 °FHaze.2 mph31%29.74 "Hg3 mi
6:30 PM88 °FHaze.2 mph33%29.77 "Hg3 mi
6:00 PM91 °FHaze.3 mph28%29.74 "Hg3 mi
4:30 PM97 °FClear.7 mph20%29.74 "Hg4 mi
4:00 PM99 °FClear.7 mph22%29.77 "Hg4 mi
3:30 PM99 °FClear.7 mph24%29.77 "Hg4 mi
3:00 PM79 °FClear.5 mph51%29.77 "Hg4 mi
2:30 PM95 °FClear.2 mph30%29.80 "Hg4 mi
2:00 PM95 °FClear.2 mph32%29.80 "Hg4 mi
1:30 PM93 °FHaze.2 mph36%29.83 "Hg3 mi
1:00 PM93 °FHaze.2 mph39%29.83 "Hg3 mi
12:30 PM93 °FHaze.2 mph41%29.86 "Hg3 mi
12:00 PM91 °FHaze.2 mph44%29.86 "Hg3 mi
11:30 AM91 °FHaze.2 mph49%29.89 "Hg3 mi
11:00 AM90 °FHaze.2 mph52%29.89 "Hg3 mi
10:30 AM86 °FHaze.3 mph55%29.89 "Hg3 mi
9:30 AM81 °FHaze.5 mph66%29.92 "Hg3 mi
9:00 AM79 °FHaze.5 mph65%29.92 "Hg2 mi
8:30 AM77 °FHaze.3 mph69%29.92 "Hg2 mi
8:00 AM73 °FFog.3 mph78%29.92 "Hg2 mi
7:30 AM72 °FFog.2 mph83%29.89 "Hg2 mi
7:00 AM68 °FFog.2 mph88%29.89 "Hg2 mi
6:30 AM68 °FFog.2 mph88%29.89 "Hg2 mi
6:00 AM68 °FFog.2 mph88%29.86 "Hg2 mi
5:30 AM70 °FFog.2 mph83%29.86 "Hg2 mi
4:00 AM70 °FHaze.2 mph83%29.86 "Hg2 mi
3:00 AM73 °FHaze.5 mph69%29.86 "Hg2 mi
2:00 AM75 °FHaze.5 mph65%29.86 "Hg2 mi
1:00 AM75 °FHaze.9 mph65%29.89 "Hg2 mi
12:00 AM77 °FHaze.2 mph61%29.89 "Hg2 mi
11:00 PM
Fri, Mar 27
81 °FHaze.2 mph48%29.86 "Hg2 mi
10:00 PM81 °FHaze.2 mph48%29.86 "Hg2 mi
Weather by CustomWeather, © 2015

See weather overviewHow to use our weather pages